Location: Roanoke
(37.2710°N, 79.9420°W)
Time: 19:18:53
(UTC-05:00)

Transit 2A - Pass Details

Date: 27 November 2019
Orbit: 602 x 957 km, 66.7° (Epoch: 06 December)

Event Time Altitude Azimuth Distance (km) Brightness Sun altitude
Rises 17:49:08 0° 353° (N) 2,858 8.8 -9.2°
Reaches altitude 10° 17:53:25 10° 34° (NE) 1,973 7.7 -10.0°
Enters shadow 17:54:10 11° 44° (NE) 1,943 7.6 -10.1°
Maximum altitude 17:54:20 11° 46° (NE) 1,944 - -10.2°
Drops below altitude 10° 17:55:16 10° 59° (ENE) 1,989 - -10.3°
Sets 17:59:40 0° 99° (E) 2,958 - -11.2°
